Temperature
9 9 9 9 9 9 9 9 9 9 9 9 9 9 9 9 9 9 10 9 10 10 10 10 10 10 10 10 10 10 9 9 9 9 9 10 10 10 10 10 10 10 10
9 8 8 8 8 8 8 9 9 9 9 9 9 9 9 9 9 9 9 9 9 9 9 9 9 9 9 9 9 9 9 9 9 9 9 9 9 9 10 10 10 10 10
8 8 7 7 7 7 8 8 8 8 8 8 8 8 8 8 8 8 8 8 8 9 9 9 9 9 9 9 9 9 9 9 9 9 9 9 9 9 9 9 9 9 9
8 7 7 7 6 7 7 7 8 8 8 8 8 8 7 8 8 8 8 8 8 8 8 8 8 8 8 8 8 8 8 8 8 8 8 8 9 8 8 9 9 9 9
7 7 7 6 6 6 6 7 7 7 7 7 7 7 7 7 7 7 7 8 8 8 8 8 8 8 8 8 8 8 8 8 8 8 8 8 8 8 8 8 8 8 8
7 6 6 6 6 6 6 6 6 6 6 6 6 6 6 6 6 7 7 7 7 7 7 7 7 7 7 7 7 7 8 8 7 8 8 8 7 8 8 8 8 8 8
6 6 5 5 5 5 5 5 5 5 5 5 6 6 6 6 6 6 6 6 6 7 7 7 7 7 7 7 7 7 7 7 7 7 7 7 7 7 7 7 7 7 7
5 5 5 4 4 4 4 4 4 5 5 5 5 5 5 5 5 6 6 6 6 6 6 6 6 6 6 6 6 6 6 6 6 7 7 7 7 7 7 7 6 6 6
5 4 4 4 4 4 4 4 4 4 4 4 4 4 4 5 5 5 5 5 5 5 5 5 5 6 6 6 6 6 6 6 6 6 6 6 6 6 6 6 6 6 5
4 4 3 3 3 3 3 3 3 3 3 3 3 3 4 4 4 4 4 4 4 4 5 5 5 5 5 5 5 5 5 5 5 5 5 6 6 5 5 5 5 5 5
4 3 2 2 2 2 2 2 2 2 2 2 2 2 3 3 3 3 4 4 4 4 4 4 4 4 4 4 4 4 5 5 5 5 5 5 5 5 5 5 5 5 4
3 2 2 2 2 2 2 1 1 1 2 2 2 2 2 2 2 3 3 3 3 3 3 3 3 3 3 3 3 4 4 4 4 4 4 4 4 4 4 4 4 4 4
2 2 1 1 1 1 1 1 1 1 1 1 1 1 1 1 2 2 2 2 2 2 3 3 3 3 3 3 3 3 3 3 3 3 4 4 4 4 4 4 4 4 4
1 1 1 0 0 0 1 1 1 1 1 1 1 1 1 1 1 1 1 1 2 2 2 2 2 2 2 2 2 2 2 3 3 3 3 3 3 3 3 3 3 3 3
1 0 0 -0 -0 0 0 0 0 0 0 0 0 0 0 0 0 0 0 1 1 1 1 1 1 2 2 2 2 2 2 2 2 2 2 3 3 3 3 3 3 3 3
0 0 -0 -0 -1 -1 -1 -1 -0 -0 -0 -0 -0 -0 -0 -0 -0 -0 0 0 0 1 1 1 1 1 1 1 1 1 1 1 1 1 2 2 2 2 2 2 2 2 2
0 -0 -1 -1 -1 -1 -1 -1 -1 -1 -1 -1 -1 -1 -1 -1 -0 -0 -0 -0 -0 0 0 0 0 0 0 1 1 1 1 1 1 1 1 1 1 2 2 2 2 2 2
-0 -1 -1 -2 -2 -2 -2 -2 -2 -1 -1 -1 -1 -1 -1 -1 -1 -1 -1 -1 -1 -1 -0 -0 -0 -0 -0 -0 0 0 0 0 0 0 0 1 1 1 1 1 1 1 1
-1 -2 -2 -2 -2 -2 -2 -2 -2 -2 -2 -2 -2 -2 -2 -1 -1 -1 -1 -1 -1 -1 -1 -1 -1 -1 -1 -1 -0 -0 -0 -0 -0 -0 -0 -0 0 0 0 0 0 0 0
-2 -2 -2 -3 -3 -3 -3 -3 -3 -3 -2 -2 -2 -2 -2 -2 -2 -2 -2 -2 -2 -1 -1 -1 -1 -1 -1 -1 -1 -1 -1 -1 -1 -1 -1 -1 -1 -0 -0 -0 -0 -0 -0
-2 -3 -3 -3 -3 -3 -3 -3 -3 -3 -3 -3 -3 -3 -3 -2 -2 -2 -2 -2 -2 -2 -2 -2 -2 -2 -2 -1 -1 -2 -2 -2 -2 -2 -2 -1 -1 -1 -1 -1 -1 -1 -1
-3 -3 -3 -3 -3 -3 -3 -3 -3 -3 -3 -3 -3 -3 -3 -3 -3 -3 -3 -3 -2 -2 -2 -2 -2 -2 -2 -2 -2 -2 -2 -2 -3 -2 -2 -2 -2 -2 -2 -2 -2 -2 -2
-4 -4 -4 -4 -4 -4 -4 -4 -4 -4 -4 -3 -3 -3 -3 -3 -3 -3 -3 -3 -3 -3 -3 -3 -3 -3 -2 -2 -3 -3 -3 -3 -3 -3 -3 -3 -3 -3 -3 -2 -2 -2 -2
-4 -4 -4 -4 -4 -4 -4 -4 -4 -4 -4 -4 -4 -4 -4 -4 -4 -4 -4 -4 -4 -4 -4 -4 -4 -3 -3 -3 -3 -3 -3 -3 -3 -3 -3 -3 -3 -3 -3 -3 -3 -3 -3
-4 -4 -4 -4 -4 -4 -4 -4 -4 -4 -4 -4 -4 -5 -4 -4 -4 -4 -4 -4 -4 -4 -4 -4 -4 -4 -4 -4 -4 -4 -4 -4 -4 -4 -4 -4 -4 -4 -4 -3 -3 -3 -3
-4 -5 -5 -5 -5 -5 -4 -5 -4 -5 -5 -5 -5 -5 -5 -5 -5 -5 -5 -5 -5 -5 -5 -5 -5 -5 -5 -5 -4 -4 -4 -4 -4 -4 -4 -4 -4 -4 -4 -4 -4 -4 -4
Wind_Speed
1 2 2 2 2 2 2 1 1 0 1 1 1 1 1 1 1 1 1 1 2 2 3 2 2 3 3 4 3 2 3 3 2 1 1 2 4 5 4 3 4 5 6
1 1 2 2 2 2 2 2 1 1 0 1 1 1 1 2 2 1 1 2 2 3 2 3 3 3 3 3 3 3 2 2 3 2 1 2 2 3 4 4 4 5 5
1 1 2 2 2 2 2 2 2 1 0 0 1 0 0 0 0 1 1 2 2 2 2 3 3 3 3 4 4 4 4 3 3 3 3 3 3 2 2 4 4 4 4
1 1 1 1 1 1 1 1 2 2 1 1 2 2 2 2 2 2 2 2 1 1 2 3 3 3 3 3 4 3 3 4 3 2 3 3 2 2 1 2 4 5 5
1 1 1 1 2 2 2 1 2 2 1 1 1 2 2 2 2 2 2 2 2 2 2 2 2 2 2 3 3 3 4 4 4 3 2 2 2 2 2 3 3 3 4
1 1 2 2 2 2 2 1 2 2 1 1 1 1 2 2 2 3 3 2 1 1 2 2 2 2 3 3 3 4 4 4 4 3 3 2 2 2 2 3 4 4 4
2 2 2 2 2 1 1 2 2 2 2 1 1 1 2 2 3 3 3 2 2 2 3 2 2 2 3 3 3 3 3 4 4 4 4 3 3 2 2 3 3 3 3
2 2 2 1 2 2 2 2 2 3 2 1 1 1 2 2 2 2 2 3 3 3 3 3 3 3 3 3 3 3 4 4 5 6 5 4 4 3 3 3 3 3 3
2 1 1 1 2 2 2 2 2 2 2 2 2 1 2 1 2 2 2 2 2 2 3 3 3 3 3 4 3 3 4 4 4 5 5 4 4 4 3 3 3 4 5
1 1 1 2 2 2 2 2 2 2 2 2 2 2 1 1 1 1 1 2 2 2 2 3 3 2 3 3 3 3 4 4 4 4 5 5 4 4 4 4 4 4 5
1 1 1 2 2 2 2 2 2 2 2 2 2 2 2 2 2 1 1 1 2 2 2 3 3 3 3 3 3 4 3 4 4 4 5 6 5 5 4 4 4 4 4
1 1 1 2 2 2 2 2 2 2 2 2 2 2 2 2 2 2 2 2 2 2 2 3 3 3 3 3 4 4 4 5 5 5 5 6 4 5 5 5 5 5 5
2 1 1 2 2 3 3 3 2 2 3 3 2 2 2 2 2 3 2 2 2 3 3 3 3 3 3 3 4 4 5 5 5 6 6 6 5 5 4 5 5 5 5
2 2 2 2 2 3 3 3 3 3 3 3 3 3 3 3 3 3 3 3 3 3 3 3 3 3 3 3 4 4 5 5 5 5 6 6 6 6 6 6 5 5 4
2 2 2 3 3 3 3 3 3 4 4 3 4 4 3 3 3 3 3 3 3 4 3 4 4 3 3 4 4 4 5 4 5 5 5 5 7 8 7 6 5 5 5
3 3 3 4 4 4 4 4 4 4 4 4 4 4 4 3 3 3 4 4 4 4 4 4 4 4 4 5 6 5 4 5 5 5 5 5 6 7 8 8 8 8 7
3 3 3 4 4 4 4 5 5 5 4 4 5 4 4 3 4 4 4 4 5 5 5 5 5 5 5 6 7 7 5 5 5 5 5 5 5 5 4 5 6 6 8
3 4 4 4 4 4 4 5 5 5 5 5 5 4 4 4 4 4 4 5 4 5 5 5 5 5 5 6 7 7 5 5 5 5 5 5 4 5 4 3 4 4 5
4 4 3 4 4 4 4 4 4 4 4 4 5 5 5 5 5 5 5 5 4 5 4 4 4 4 5 6 7 7 4 4 4 4 5 5 5 6 6 4 4 4 4
3 3 3 3 4 4 4 4 4 4 5 5 5 5 5 5 5 5 5 4 4 4 4 4 4 4 4 6 7 6 3 3 3 3 4 6 6 7 6 4 4 5 4
3 3 2 3 3 4 3 4 5 5 5 5 5 5 4 5 4 4 4 4 3 3 3 4 4 4 4 5 6 6 3 3 3 3 3 4 7 7 6 5 4 6 4
3 3 3 3 3 3 3 4 5 5 4 4 4 4 4 4 4 3 3 3 3 3 3 3 3 3 3 4 5 5 5 4 3 4 4 4 6 7 7 6 5 5 3
3 3 3 4 4 4 3 4 5 4 4 4 4 4 4 4 4 3 3 3 3 3 3 3 3 3 2 3 5 5 6 6 4 3 5 7 7 6 5 5 5 3 2
3 3 3 4 5 5 4 4 5 4 3 3 4 4 4 4 3 3 3 3 3 3 3 3 3 3 3 3 2 3 3 4 4 3 5 6 6 4 3 3 2 1 2
3 3 3 4 5 5 5 5 4 3 3 3 4 4 4 4 3 3 3 3 3 3 4 3 4 4 4 4 5 4 3 3 3 3 2 2 3 2 2 1 1 1 1
3 3 3 4 5 5 6 5 4 3 3 3 3 3 3 3 3 3 4 4 4 6 7 7 6 5 7 8 7 6 6 6 5 3 2 3 3 3 2 2 1 1 1
Wind_Direction
128 106 103 96 92 75 62 69 78 175 154 156 170 177 195 201 212 207 198 222 254 234 198 189 194 192 197 200 189 190 196 198 170 158 250 249 223 227 219 200 187 189 193
127 132 116 101 82 73 58 35 37 17 82 166 199 207 195 201 200 197 206 223 239 236 205 195 197 201 201 202 199 178 198 219 190 175 188 245 259 245 221 208 205 203 191
166 144 130 111 83 55 39 17 2 345 291 209 150 142 133 115 166 208 217 239 232 224 221 213 203 203 200 205 207 197 190 208 223 204 186 198 220 255 233 212 206 202 201
160 148 120 111 98 67 40 14 355 338 282 235 198 198 208 207 220 209 215 235 260 257 235 219 214 211 208 210 213 207 203 192 211 239 235 227 195 178 247 249 222 213 215
148 114 112 101 71 56 40 3 340 330 322 300 238 216 230 235 216 202 204 215 234 252 253 230 218 216 217 212 215 218 212 208 209 210 229 250 262 216 211 251 244 238 228
94 82 72 75 67 50 27 3 333 321 318 307 276 242 230 229 234 218 211 216 217 225 238 245 222 227 226 225 219 217 215 214 217 219 211 211 219 216 213 237 239 243 243
84 70 62 54 44 40 15 353 339 329 327 322 290 258 245 223 231 231 216 217 223 228 225 232 228 230 231 229 225 221 224 220 219 221 225 222 230 223 220 235 251 257 261
86 61 53 48 25 11 8 356 338 330 332 317 287 275 267 242 236 239 234 225 221 221 221 218 226 238 231 230 226 232 230 225 225 228 224 229 231 222 219 222 234 262 270
85 46 12 10 11 360 347 334 330 329 327 316 304 287 273 261 252 250 247 247 236 230 220 217 213 230 232 233 228 229 237 232 231 234 231 231 231 226 222 222 219 224 251
63 35 355 349 6 360 345 349 349 329 321 325 318 310 310 297 286 279 257 257 260 248 230 231 218 228 240 238 236 233 240 243 241 236 229 231 232 225 221 221 225 225 231
45 28 359 356 349 358 358 354 348 341 335 328 320 321 310 307 307 290 284 274 271 260 252 244 228 226 242 245 240 244 242 243 252 245 236 237 231 229 227 222 223 225 227
23 18 358 353 347 349 353 346 343 338 324 316 320 323 321 312 301 293 289 278 270 264 262 255 245 239 243 242 240 250 253 247 248 247 241 240 237 233 232 229 226 227 225
356 1 338 335 336 339 342 336 336 333 326 323 319 318 318 314 302 294 287 279 269 267 265 263 258 258 252 249 244 247 258 257 251 246 242 241 237 238 240 240 237 236 239
327 333 326 328 327 327 325 328 333 332 322 318 311 301 292 288 287 289 287 279 273 269 268 264 262 261 262 256 256 254 255 258 258 255 248 243 235 236 236 238 238 238 238
304 306 313 318 320 324 323 328 328 324 317 311 302 294 290 288 287 288 284 277 275 275 268 269 269 264 258 257 261 261 261 258 264 266 260 253 248 244 243 242 235 233 236
290 300 314 319 322 323 321 322 319 311 309 304 301 299 297 295 288 278 280 280 274 271 268 262 261 258 260 271 275 272 264 262 262 265 266 261 253 250 251 251 248 240 235
293 302 308 309 313 314 318 315 310 314 313 305 300 299 298 296 291 285 281 274 271 269 265 262 258 256 259 270 274 277 267 257 259 263 268 271 267 261 249 253 256 252 250
305 306 310 309 309 313 314 308 305 305 301 299 298 300 296 292 292 288 281 275 272 271 267 263 261 261 266 271 272 279 265 255 258 262 265 264 266 263 250 241 251 253 255
308 304 302 301 302 305 306 304 296 298 299 297 296 300 297 291 288 284 281 278 274 272 269 265 263 263 273 275 274 276 261 262 264 268 272 269 267 266 259 249 253 261 268
320 310 306 306 306 309 313 308 301 300 294 292 295 297 295 289 284 283 281 279 279 276 275 273 271 266 268 275 274 270 258 260 268 274 275 278 278 276 264 253 245 253 261
328 326 320 312 306 312 315 305 301 294 293 295 294 295 296 294 289 287 284 285 284 285 283 280 282 278 277 282 279 276 261 256 262 268 273 274 283 282 274 268 255 256 262
335 334 330 319 313 313 310 303 296 296 304 303 299 299 301 300 301 295 290 284 281 282 282 283 288 284 283 285 283 284 284 279 260 263 267 272 282 279 277 272 268 265 265
330 332 331 323 320 315 308 299 299 301 304 311 309 301 300 303 304 294 288 286 281 280 282 280 284 292 287 285 292 289 289 288 273 268 280 290 288 283 278 278 273 261 249
325 325 325 322 318 315 309 302 305 305 301 304 306 303 302 302 305 300 288 281 280 277 280 281 284 291 295 287 282 279 286 285 280 279 291 304 303 292 292 292 282 244 221
320 321 315 312 315 318 317 315 313 311 303 298 301 305 303 300 300 299 288 277 268 268 273 274 277 284 286 285 290 288 281 274 271 288 290 292 298 302 299 283 268 238 217
317 317 314 316 318 322 321 319 318 313 299 295 299 300 299 299 296 297 303 297 283 290 287 282 277 279 279 290 290 286 286 287 287 283 273 270 267 266 263 252 260 247 229
Height
1484 1484 1484 1485 1485 1486 1486 1487 1488 1488 1489 1489 1490 1492 1493 1495 1496 1497 1498 1500 1501 1502 1503 1504 1505 1506 1508 1510 1511 1512 1514 1516 1518 1519 1520 1521 1522 1522 1523 1524 1525 1526 1526
1481 1482 1482 1482 1483 1483 1483 1484 1484 1485 1486 1486 1487 1489 1490 1491 1492 1494 1495 1496 1497 1498 1498 1500 1501 1503 1504 1506 1507 1508 1510 1512 1514 1515 1516 1517 1518 1518 1519 1520 1521 1521 1522
1479 1480 1480 1480 1480 1480 1481 1481 1481 1482 1483 1483 1484 1485 1486 1487 1488 1489 1491 1492 1493 1494 1495 1496 1497 1499 1500 1501 1503 1504 1506 1507 1510 1511 1513 1514 1513 1514 1514 1515 1516 1517 1518
1477 1478 1478 1478 1478 1478 1478 1478 1479 1479 1479 1480 1481 1482 1483 1483 1484 1486 1487 1488 1489 1490 1491 1492 1493 1494 1496 1497 1498 1500 1501 1503 1504 1507 1508 1510 1510 1511 1509 1511 1512 1513 1513
1475 1476 1476 1476 1476 1475 1475 1476 1476 1476 1476 1477 1478 1479 1479 1480 1482 1482 1483 1484 1485 1486 1487 1488 1489 1490 1491 1493 1494 1495 1497 1498 1500 1501 1503 1504 1505 1506 1506 1506 1506 1508 1509
1473 1474 1474 1474 1473 1473 1473 1473 1473 1473 1473 1474 1474 1475 1476 1477 1478 1478 1479 1480 1481 1482 1483 1484 1485 1486 1487 1488 1489 1491 1492 1494 1495 1497 1498 1499 1500 1500 1501 1501 1501 1502 1503
1471 1471 1472 1471 1471 1471 1471 1471 1471 1470 1471 1471 1471 1472 1473 1473 1474 1475 1475 1476 1477 1477 1479 1480 1481 1482 1483 1484 1485 1486 1487 1489 1490 1491 1492 1494 1495 1496 1497 1497 1497 1497 1497
1469 1470 1470 1470 1469 1469 1469 1468 1468 1468 1468 1468 1468 1469 1469 1470 1470 1471 1472 1472 1473 1474 1475 1476 1476 1477 1478 1479 1480 1481 1482 1484 1485 1486 1487 1488 1489 1491 1492 1493 1494 1492 1491
1468 1469 1469 1468 1468 1467 1466 1466 1465 1465 1465 1465 1465 1465 1466 1466 1466 1467 1467 1468 1469 1470 1471 1471 1472 1472 1473 1475 1475 1476 1478 1479 1480 1481 1482 1482 1484 1485 1486 1487 1489 1489 1486
1467 1467 1467 1467 1466 1465 1464 1463 1463 1462 1462 1462 1462 1462 1462 1463 1463 1463 1463 1464 1465 1466 1466 1467 1467 1468 1469 1470 1471 1471 1473 1473 1474 1475 1476 1477 1478 1479 1480 1482 1482 1483 1483
1465 1465 1465 1465 1464 1463 1462 1461 1460 1460 1459 1459 1459 1458 1459 1459 1459 1459 1459 1459 1461 1461 1461 1462 1462 1463 1464 1465 1466 1466 1467 1468 1469 1470 1471 1471 1472 1473 1474 1475 1476 1476 1477
1464 1464 1463 1463 1462 1461 1460 1459 1458 1457 1457 1456 1456 1455 1455 1456 1455 1455 1455 1456 1456 1457 1457 1458 1458 1458 1459 1460 1461 1462 1462 1463 1464 1464 1465 1465 1466 1467 1468 1469 1469 1470 1470
1462 1462 1462 1461 1460 1459 1457 1456 1455 1455 1454 1454 1453 1452 1452 1452 1452 1451 1451 1452 1452 1452 1453 1453 1453 1454 1455 1455 1456 1457 1457 1458 1458 1459 1460 1460 1461 1461 1461 1462 1463 1463 1464
1461 1460 1460 1459 1458 1457 1455 1454 1453 1452 1451 1451 1450 1449 1449 1449 1449 1448 1448 1448 1448 1448 1448 1449 1449 1450 1450 1451 1451 1452 1452 1453 1453 1453 1454 1455 1455 1455 1456 1456 1457 1458 1458
1459 1458 1457 1456 1455 1454 1453 1452 1451 1450 1449 1448 1447 1446 1446 1446 1445 1445 1445 1445 1444 1445 1445 1445 1445 1445 1446 1446 1447 1447 1447 1448 1447 1448 1448 1449 1449 1450 1451 1451 1451 1452 1452
1456 1456 1455 1454 1452 1451 1450 1449 1448 1447 1446 1445 1444 1443 1443 1442 1442 1441 1441 1441 1441 1441 1441 1441 1441 1441 1441 1442 1442 1442 1442 1442 1442 1442 1443 1443 1444 1444 1445 1445 1446 1447 1447
1454 1453 1452 1450 1449 1448 1447 1445 1444 1443 1443 1442 1441 1440 1440 1439 1438 1438 1438 1437 1437 1437 1436 1436 1436 1436 1436 1437 1437 1438 1438 1437 1437 1438 1438 1438 1438 1439 1439 1440 1440 1441 1441
1451 1449 1448 1447 1446 1445 1443 1442 1441 1440 1439 1438 1437 1437 1436 1435 1435 1434 1434 1433 1433 1433 1432 1432 1432 1432 1432 1432 1433 1433 1432 1432 1433 1433 1433 1433 1433 1433 1434 1434 1434 1434 1435
1448 1446 1445 1444 1442 1441 1440 1438 1437 1437 1436 1435 1434 1434 1433 1432 1431 1430 1430 1430 1429 1428 1428 1428 1428 1427 1427 1428 1428 1428 1428 1428 1428 1428 1428 1428 1428 1429 1429 1429 1428 1428 1429
1444 1443 1441 1440 1438 1437 1436 1435 1434 1433 1432 1431 1431 1430 1429 1428 1427 1426 1426 1426 1425 1424 1424 1423 1424 1423 1423 1423 1423 1424 1423 1423 1423 1423 1423 1423 1424 1424 1424 1424 1423 1423 1423
1440 1439 1438 1437 1435 1434 1433 1432 1430 1429 1428 1428 1427 1426 1426 1425 1424 1423 1422 1421 1421 1420 1419 1419 1419 1419 1419 1419 1419 1419 1419 1418 1418 1418 1418 1418 1419 1419 1419 1419 1419 1419 1419
1437 1436 1435 1434 1433 1431 1430 1428 1427 1426 1425 1425 1424 1423 1422 1421 1420 1419 1418 1417 1417 1416 1415 1415 1415 1415 1415 1415 1415 1415 1415 1414 1414 1414 1414 1414 1414 1415 1415 1415 1415 1415 1415
1435 1434 1433 1431 1430 1429 1428 1426 1424 1424 1423 1421 1420 1419 1418 1417 1416 1415 1414 1413 1413 1412 1411 1411 1410 1410 1410 1410 1410 1410 1410 1410 1410 1410 1410 1411 1411 1411 1410 1410 1410 1410 1410
1433 1432 1431 1429 1427 1426 1425 1424 1422 1421 1420 1418 1417 1416 1415 1414 1413 1412 1411 1410 1409 1409 1408 1408 1407 1407 1406 1406 1406 1406 1407 1407 1406 1406 1406 1407 1407 1406 1406 1406 1406 1406 1406
1431 1430 1429 1427 1425 1424 1422 1421 1419 1418 1417 1416 1415 1413 1412 1411 1410 1409 1408 1407 1406 1406 1405 1404 1404 1403 1403 1403 1403 1403 1403 1403 1403 1403 1403 1403 1402 1402 1402 1402 1402 1402 1402
1429 1428 1427 1425 1423 1421 1419 1418 1417 1415 1414 1413 1412 1411 1410 1409 1408 1406 1405 1404 1404 1403 1402 1402 1401 1400 1400 1400 1400 1400 1400 1400 1400 1400 1399 1399 1399 1398 1398 1398 1398 1398 1398